Location: Borea
(45.6167°N, 23.0167°E)
Time: 02:24:11
(UTC+00:00)

OPS 8068 - Pass Details

Date: 24 February 2024
Orbit: 631 x 963 km, 98.3° (Epoch: 13 April)

Event Time Altitude Azimuth Distance (km) Brightness Sun altitude
Rises 17:46:29 0° 359° (N) 3,286 ? -18.1°
Reaches altitude 10° 17:49:27 10° 340° (NNW) 2,416 ? -18.7°
Maximum altitude 17:52:54 18° 300° (WNW) 1,989 ? -19.3°
Drops below altitude 10° 17:56:31 10° 260° (W) 2,544 ? -19.9°
Sets 17:59:45 0° 242° (WSW) 3,533 ? -20.4°
